TimeCST,TemperatureF,Dew PointF,Humidity,Sea Level PressureIn,VisibilityMPH,Wind Direction,Wind SpeedMPH,Gust SpeedMPH,PrecipitationIn,Events,Conditions,WindDirDegrees,DateUTC
12:53 AM,32.0,26.1,79,30.22,10.0,NNW,17.3,-,N/A,,Overcast,340,2013-01-17 06:53:00
1:53 AM,30.0,25.0,82,30.24,10.0,NNW,10.4,-,N/A,,Overcast,330,2013-01-17 07:53:00
2:53 AM,26.6,19.4,74,30.25,10.0,NNW,13.8,-,N/A,,Mostly Cloudy,340,2013-01-17 08:53:00
3:08 AM,24.8,19.4,80,30.26,10.0,NNW,11.5,-,N/A,,Scattered Clouds,340,2013-01-17 09:08:00
3:53 AM,24.1,19.0,81,30.30,10.0,NNW,10.4,-,N/A,,Clear,340,2013-01-17 09:53:00
4:53 AM,21.9,17.1,82,30.33,10.0,NNW,12.7,-,N/A,,Clear,340,2013-01-17 10:53:00
5:53 AM,19.4,15.8,86,30.33,10.0,NNW,12.7,-,N/A,,Clear,340,2013-01-17 11:53:00
6:53 AM,18.0,14.0,84,30.39,10.0,NNW,10.4,-,N/A,,Clear,340,2013-01-17 12:53:00
7:53 AM,18.0,14.0,84,30.42,10.0,NW,8.1,-,N/A,,Clear,320,2013-01-17 13:53:00
8:53 AM,21.0,14.0,74,30.45,10.0,NW,10.4,-,N/A,,Clear,320,2013-01-17 14:53:00
9:53 AM,24.1,14.0,65,30.47,10.0,NW,12.7,-,N/A,,Clear,320,2013-01-17 15:53:00
10:53 AM,27.0,12.9,56,30.47,10.0,NNW,8.1,-,N/A,,Clear,330,2013-01-17 16:53:00
11:53 AM,30.9,10.0,42,30.45,10.0,NNW,12.7,16.1,N/A,,Clear,340,2013-01-17 17:53:00
12:53 PM,32.0,10.0,40,30.43,10.0,NNW,6.9,-,N/A,,Mostly Cloudy,330,2013-01-17 18:53:00
1:53 PM,33.1,12.0,42,30.42,10.0,NNW,9.2,-,N/A,,Clear,330,2013-01-17 19:53:00
2:53 PM,33.1,14.0,46,30.42,10.0,WNW,8.1,-,N/A,,Clear,300,2013-01-17 20:53:00
3:53 PM,34.0,16.0,48,30.43,10.0,WSW,6.9,-,N/A,,Clear,250,2013-01-17 21:53:00
4:53 PM,32.0,17.1,54,30.44,10.0,WSW,4.6,-,N/A,,Clear,250,2013-01-17 22:53:00
5:53 PM,28.0,16.0,61,30.44,10.0,SW,4.6,-,N/A,,Clear,220,2013-01-17 23:53:00
6:53 PM,24.1,15.1,69,30.45,10.0,SSW,3.5,-,N/A,,Clear,200,2013-01-18 00:53:00
7:53 PM,25.0,15.1,66,30.45,10.0,Calm,Calm,-,N/A,,Clear,0,2013-01-18 01:53:00
8:53 PM,21.9,14.0,72,30.44,10.0,SSE,3.5,-,N/A,,Clear,150,2013-01-18 02:53:00
9:53 PM,24.1,16.0,71,30.43,10.0,Calm,Calm,-,N/A,,Clear,0,2013-01-18 03:53:00
10:53 PM,24.1,15.1,69,30.42,10.0,South,4.6,-,N/A,,Clear,170,2013-01-18 04:53:00
11:53 PM,23.0,15.1,72,30.41,10.0,North,-9999.0,-,N/A,,Clear,0,2013-01-18 05:53:00